Flag for Germany Weather past 2 weeks in Fürth, Bavaria, Germany

Now
46 °F

Scattered clouds.


Feels Like: 44 °F
Forecast: 45 / 68 °F
Wind: 5 mph from North

Location: Nuernberg


UV Index: 3 (Moderate)

Visibility: N/A


Pressure: 29.92 "Hg

Humidity: 82%

Dew point: 41 °F

Location of FürthLocation

Historic Weather in Fürth

°F

Fürth temperature yesterday

Maximum temperature yesterday: 45 °F (at 1:50 PM)
Minimum temperature yesterday: 36 °F (at 11:20 PM)
Average temperature yesterday: 41 °F

Past Weeks' High & Low Weather Summary

 TemperatureHumidityPressure
High73 °F (Apr 4, 2:20 PM)100% (Apr 5, 5:50 AM)30.36 "Hg (Apr 5, 5:50 AM)
Low27 °F (Apr 17, 6:20 AM)28% (Apr 17, 2:50 PM)29.68 "Hg (Apr 4, 3:20 PM)
Average50 °F69%30.05 "Hg
* Reported Apr 4 9:20 AM — Apr 19 9:20 AM, Fürth, Weather by CustomWeather, © 2014

Note: Actual official high and low records may vary slightly from our data, if they occured in-between our weather recording intervals... More about our weather records

Advertising

Historic Weather Conditions — Data for Previous 24 hours

 ConditionsComfort  
Time TempWeatherWind HumidityBarometerVisibility
9:20 AM
Apr 19
43 °FPartly sunny.6 mph100%29.92 "HgN/A
8:50 AM41 °FPartly sunny.2 mph100%29.95 "HgN/A
8:20 AM37 °FPartly sunny.2 mph100%29.95 "HgN/A
7:50 AM36 °FBroken clouds.2 mph100%29.95 "HgN/A
7:20 AM34 °FBroken clouds.2 mph100%29.95 "HgN/A
6:50 AM32 °FPartly cloudy.1 mph100%29.95 "HgN/A
6:20 AM32 °FIce fog.No wind100%29.92 "Hg2 mi
5:50 AM32 °FIce fog.1 mph100%29.92 "Hg0 mi
5:20 AM32 °FFog.3 mph100%29.92 "Hg0 mi
4:50 AM34 °FFog.2 mph100%29.92 "Hg1 mi
4:20 AM32 °FIce fog.1 mph100%29.92 "Hg0 mi
3:50 AM32 °FFog.1 mph100%29.92 "Hg0 mi
3:20 AM32 °FChilly.1 mph100%29.95 "Hg1 mi
2:50 AM32 °FChilly.2 mph100%29.95 "Hg2 mi
2:20 AM32 °FIce fog.1 mph100%29.95 "Hg3 mi
1:50 AM32 °FIce fog.1 mph100%29.95 "Hg2 mi
1:20 AM34 °FFog.1 mph100%29.95 "Hg4 mi
12:50 AM34 °FFog.3 mph100%29.92 "Hg4 mi
12:20 AM36 °FFog.2 mph100%29.95 "HgN/A
11:50 PM
Apr 18
36 °FClear.1 mph100%29.92 "Hg10 mi
11:20 PM36 °FClear.2 mph100%29.92 "Hg10 mi
10:50 PM37 °FPassing clouds.2 mph100%29.92 "HgN/A
10:20 PM37 °FPassing clouds.2 mph100%29.92 "HgN/A
9:50 PM37 °FPassing clouds.2 mph100%29.92 "HgN/A
9:20 PM39 °FPassing clouds.2 mph100%29.92 "HgN/A
8:50 PM41 °FScattered clouds.2 mph93%29.92 "HgN/A
8:20 PM41 °FPartly sunny.1 mph87%29.89 "HgN/A
7:50 PM43 °FPartly sunny.3 mph81%29.89 "HgN/A
7:20 PM43 °FBroken clouds.3 mph87%29.89 "HgN/A
6:50 PM43 °FBroken clouds.3 mph81%29.89 "HgN/A
6:20 PM43 °FScattered clouds.6 mph87%29.89 "HgN/A
5:50 PM43 °FScattered clouds.8 mph87%29.86 "HgN/A
5:20 PM43 °FScattered clouds.1 mph87%29.86 "HgN/A
4:50 PM41 °FSprinkles. Broken clouds.5 mph87%29.86 "HgN/A
4:20 PM41 °FSprinkles. Partly sunny.13 mph81%29.86 "HgN/A
3:20 PM45 °FScattered showers. Partly sunny.7 mph76%29.86 "HgN/A
2:50 PM45 °FBroken clouds.3 mph76%29.86 "HgN/A
2:20 PM45 °FBroken clouds.5 mph76%29.86 "HgN/A
1:50 PM45 °FBroken clouds.3 mph81%29.86 "HgN/A
1:20 PM43 °FBroken clouds.3 mph87%29.86 "HgN/A
12:50 PM43 °FBroken clouds.5 mph87%29.86 "HgN/A
12:20 PM41 °FLight rain. Partly sunny.3 mph93%29.86 "HgN/A
11:50 AM41 °FLight rain. Broken clouds.5 mph93%29.86 "HgN/A
11:20 AM41 °FLight rain. Broken clouds.6 mph93%29.83 "HgN/A
10:50 AM41 °FLight rain. Broken clouds.9 mph93%29.83 "HgN/A
10:20 AM43 °FLight rain. Overcast.2 mph93%29.83 "HgN/A
Weather by CustomWeather, © 2014

See weather overview